Location: Central Coast NSW, Australia
(33.2407°S, 151.4316°E)
Time: 22:38:26
(UTC+11:00)

ISS - Visible Passes

Search period start: 24 January 2019 00:00
Search period end: 03 February 2019 00:00
Orbit: 404 x 410 km, 51.6° (Epoch: 24 January)

Date Brightness Start Highest point End Pass type
(mag) Time Alt. Az. Time Alt. Az. Time Alt. Az.
26 Jan -2.0 05:11:23 10° N 05:14:12 26° NE 05:17:03 10° ESE visible
27 Jan -1.2 04:22:16 12° NE 04:23:00 13° NE 04:24:34 10° E visible
28 Jan -3.8 05:05:55 24° NW 05:07:49 85° NE 05:11:10 10° SE visible
29 Jan -2.6 04:16:44 36° ENE 04:16:44 36° ENE 04:19:36 10° ESE visible
30 Jan -0.5 03:27:29 10° E 03:27:29 10° E 03:27:33 10° E visible
30 Jan -2.6 05:00:12 23° W 05:01:33 33° SW 05:04:37 10° SSE visible
31 Jan -2.8 04:10:52 46° SSE 04:10:52 46° SSE 04:13:25 10° SE visible
01 Feb -0.5 03:21:29 13° ESE 03:21:29 13° ESE 03:21:57 10° SE visible
01 Feb -1.5 04:54:11 13° WSW 04:55:25 15° SSW 04:57:29 10° S visible
02 Feb -1.6 04:04:44 22° S 04:04:44 22° S 04:06:38 10° SSE visible
